{"data":{"norad_id":52305,"epoch":"2026-05-25T04:08:06.663840Z","epoch_age_seconds":63619,"freshness":"FRESH","line1":"1 52305U 22041AW  26145.17229935  .00000565  00000+0  53600-4 0  9993","line2":"2 52305  53.2138 115.8844 0001242  82.5507 277.5626 15.08841118226053","mean_motion":15.08841118,"eccentricity":0.0001242,"inclination_deg":53.2138,"raan_deg":115.8844,"arg_perigee_deg":82.5507,"mean_anomaly_deg":277.5626,"bstar":5.36e-5,"rev_number":22605,"period_min":95.437483961781,"perigee_km":538.88077136759,"apogee_km":540.59917200736,"semimajor_km":6917.8769716875,"source":"CELESTRAK","updated_at":"2026-05-25T13:38:17.110100Z"}}